TimeEST,TemperatureF,Dew PointF,Humidity,Sea Level PressureIn,VisibilityMPH,Wind Direction,Wind SpeedMPH,Gust SpeedMPH,PrecipitationIn,Events,Conditions,WindDirDegrees,DateUTC
12:15 AM,47.7,46.6,96,30.06,10.0,East,9.2,-,N/A,,Overcast,80,2012-12-09 05:15:00
12:35 AM,47.7,46.4,95,30.06,10.0,ENE,11.5,-,N/A,,Overcast,70,2012-12-09 05:35:00
12:55 AM,47.7,46.6,96,30.05,10.0,ENE,11.5,-,N/A,,Overcast,60,2012-12-09 05:55:00
1:15 AM,47.7,46.4,95,30.06,10.0,ENE,10.4,-,N/A,,Overcast,70,2012-12-09 06:15:00
1:35 AM,45.5,44.2,95,30.06,10.0,ENE,9.2,-,N/A,,Overcast,70,2012-12-09 06:35:00
1:55 AM,45.1,44.1,96,30.05,10.0,ENE,8.1,-,N/A,,Overcast,60,2012-12-09 06:55:00
2:15 AM,45.1,44.1,96,30.06,10.0,ENE,8.1,-,N/A,,Overcast,70,2012-12-09 07:15:00
2:35 AM,45.1,44.2,97,30.07,10.0,ENE,8.1,-,N/A,,Overcast,60,2012-12-09 07:35:00
2:55 AM,45.1,44.2,97,30.06,10.0,NE,8.1,-,N/A,,Overcast,50,2012-12-09 07:55:00
3:15 AM,45.1,44.2,97,30.06,10.0,NE,8.1,-,N/A,,Overcast,50,2012-12-09 08:15:00
3:35 AM,45.1,44.6,98,30.06,10.0,NE,6.9,-,N/A,,Overcast,50,2012-12-09 08:35:00
3:55 AM,45.1,44.6,98,30.06,10.0,NE,6.9,-,N/A,,Overcast,50,2012-12-09 08:55:00
4:15 AM,45.1,44.6,98,30.05,10.0,ENE,8.1,-,N/A,,Overcast,60,2012-12-09 09:15:00
4:35 AM,45.1,44.2,97,30.05,10.0,ENE,6.9,-,N/A,,Overcast,60,2012-12-09 09:35:00
4:55 AM,45.1,44.2,97,30.05,10.0,ENE,8.1,-,N/A,,Overcast,60,2012-12-09 09:55:00
5:15 AM,45.1,44.2,97,30.05,10.0,ENE,8.1,-,N/A,,Overcast,70,2012-12-09 10:15:00
5:35 AM,45.1,44.2,97,30.05,10.0,ENE,8.1,-,N/A,,Overcast,70,2012-12-09 10:35:00
5:55 AM,45.1,44.2,97,30.04,10.0,ENE,10.4,-,N/A,,Overcast,70,2012-12-09 10:55:00
6:15 AM,45.1,44.2,97,30.03,10.0,ENE,8.1,-,N/A,,Overcast,60,2012-12-09 11:15:00
6:35 AM,45.1,44.1,96,30.03,10.0,East,9.2,-,N/A,,Overcast,80,2012-12-09 11:35:00
6:55 AM,45.1,43.9,95,30.03,10.0,East,9.2,-,N/A,,Overcast,80,2012-12-09 11:55:00
7:15 AM,45.1,43.9,95,30.03,10.0,East,6.9,-,N/A,,Overcast,90,2012-12-09 12:15:00
7:35 AM,45.1,43.9,95,30.02,10.0,East,6.9,-,N/A,,Overcast,80,2012-12-09 12:35:00
7:55 AM,45.1,43.9,95,30.02,10.0,East,5.8,-,N/A,,Overcast,100,2012-12-09 12:55:00
8:15 AM,45.1,43.9,95,30.01,10.0,East,9.2,-,N/A,,Overcast,90,2012-12-09 13:15:00
8:35 AM,45.1,43.9,95,30.00,10.0,East,10.4,-,N/A,,Overcast,90,2012-12-09 13:35:00
8:55 AM,45.1,44.2,97,30.00,10.0,East,8.1,-,N/A,,Overcast,90,2012-12-09 13:55:00
9:15 AM,45.1,44.2,97,29.98,10.0,ESE,9.2,-,N/A,,Overcast,110,2012-12-09 14:15:00
9:35 AM,46.0,45.1,97,29.98,10.0,East,6.9,-,N/A,,Overcast,100,2012-12-09 14:35:00
9:55 AM,47.7,46.6,96,29.99,10.0,ESE,6.9,-,N/A,,Overcast,120,2012-12-09 14:55:00
10:35 AM,47.7,46.9,97,29.98,10.0,ESE,5.8,-,N/A,,Overcast,110,2012-12-09 15:35:00
10:55 AM,47.7,47.3,99,29.97,10.0,ESE,4.6,-,N/A,,Overcast,110,2012-12-09 15:55:00
11:15 AM,47.7,47.3,99,29.95,7.0,East,4.6,-,N/A,,Overcast,100,2012-12-09 16:15:00
11:35 AM,47.7,47.5,99,29.95,7.0,East,4.6,-,N/A,Rain,Light Rain,90,2012-12-09 16:35:00
11:55 AM,47.7,47.7,100,29.94,7.0,Calm,Calm,-,N/A,,Overcast,0,2012-12-09 16:55:00
12:15 PM,47.7,47.7,100,29.92,7.0,ESE,5.8,-,N/A,,Overcast,110,2012-12-09 17:15:00
12:35 PM,47.7,47.7,100,29.90,7.0,ESE,4.6,-,N/A,,Overcast,120,2012-12-09 17:35:00
12:55 PM,48.2,48.2,100,29.88,7.0,ESE,3.5,-,N/A,,Overcast,120,2012-12-09 17:55:00
1:15 PM,50.2,50.2,100,29.87,7.0,ESE,4.6,-,N/A,,Overcast,110,2012-12-09 18:15:00
1:35 PM,52.7,52.7,100,29.87,7.0,South,3.5,-,N/A,,Overcast,170,2012-12-09 18:35:00
1:55 PM,52.7,52.7,100,29.85,10.0,South,3.5,-,N/A,,Overcast,170,2012-12-09 18:55:00
2:15 PM,52.7,52.7,100,29.84,10.0,Calm,Calm,-,N/A,,Overcast,0,2012-12-09 19:15:00
2:35 PM,52.7,52.3,99,29.84,10.0,Calm,Calm,-,N/A,,Overcast,0,2012-12-09 19:35:00
2:55 PM,52.7,52.3,99,29.83,10.0,Calm,Calm,-,N/A,,Overcast,0,2012-12-09 19:55:00
3:15 PM,52.7,52.2,98,29.82,10.0,Calm,Calm,-,N/A,,Overcast,0,2012-12-09 20:15:00
3:35 PM,52.7,52.3,99,29.82,10.0,Calm,Calm,-,N/A,,Overcast,0,2012-12-09 20:35:00
3:55 PM,53.6,53.2,99,29.82,10.0,Calm,Calm,-,N/A,,Overcast,0,2012-12-09 20:55:00
4:15 PM,53.8,53.6,99,29.82,10.0,Calm,Calm,-,N/A,,Overcast,0,2012-12-09 21:15:00
4:35 PM,52.7,52.7,100,29.81,4.0,Calm,Calm,-,N/A,Rain,Light Rain,0,2012-12-09 21:35:00
4:55 PM,52.7,52.7,100,29.81,4.0,Calm,Calm,-,N/A,Rain,Light Rain,0,2012-12-09 21:55:00
5:15 PM,52.7,52.7,100,29.81,5.0,Calm,Calm,-,N/A,,Overcast,0,2012-12-09 22:15:00
5:35 PM,55.4,55.4,100,29.80,5.0,SW,3.5,-,N/A,,Drizzle,220,2012-12-09 22:35:00
5:55 PM,56.8,56.8,100,29.80,7.0,SSW,3.5,-,N/A,Rain,Light Rain,210,2012-12-09 22:55:00
6:15 PM,57.7,57.7,100,29.79,7.0,South,4.6,-,N/A,Rain,Light Rain,190,2012-12-09 23:15:00
6:35 PM,57.7,57.7,100,29.78,10.0,SSW,6.9,-,N/A,,Overcast,200,2012-12-09 23:35:00
6:55 PM,57.7,57.7,100,29.78,10.0,SSW,5.8,-,N/A,,Overcast,210,2012-12-09 23:55:00
7:15 PM,57.7,57.7,100,29.78,5.0,South,5.8,-,N/A,Rain,Rain,190,2012-12-10 00:15:00
7:35 PM,57.9,57.9,100,29.77,10.0,South,6.9,-,N/A,,Overcast,190,2012-12-10 00:35:00
7:55 PM,58.8,58.8,100,29.76,10.0,South,6.9,-,N/A,,Overcast,190,2012-12-10 00:55:00
8:15 PM,58.8,58.8,100,29.75,10.0,South,5.8,-,N/A,,Overcast,190,2012-12-10 01:15:00
8:35 PM,59.0,59.0,100,29.74,10.0,South,9.2,-,N/A,,Overcast,190,2012-12-10 01:35:00
8:55 PM,58.6,58.6,100,29.73,10.0,South,9.2,-,N/A,Rain,Rain,190,2012-12-10 01:55:00
9:15 PM,57.7,57.7,100,29.71,10.0,SSW,6.9,-,N/A,Rain,Light Rain,210,2012-12-10 02:15:00
9:35 PM,57.7,57.7,100,29.73,10.0,SW,8.1,-,N/A,Rain,Rain,230,2012-12-10 02:35:00
9:55 PM,57.7,57.7,100,29.73,10.0,SSW,11.5,-,N/A,Rain,Rain,200,2012-12-10 02:55:00
10:15 PM,55.6,55.6,100,29.72,10.0,SSW,10.4,-,N/A,Rain,Rain,200,2012-12-10 03:15:00
10:35 PM,55.4,55.4,100,29.72,10.0,SSW,8.1,-,N/A,Rain,Light Rain,200,2012-12-10 03:35:00
10:55 PM,55.4,55.4,100,29.72,10.0,SSW,9.2,-,N/A,Rain,Light Rain,200,2012-12-10 03:55:00
11:15 PM,55.4,55.4,100,29.72,7.0,SSW,10.4,-,N/A,Rain,Rain,200,2012-12-10 04:15:00
11:35 PM,55.4,55.4,100,29.71,7.0,South,8.1,-,N/A,Rain,Rain,190,2012-12-10 04:35:00
11:55 PM,55.4,55.4,100,29.71,7.0,South,10.4,-,N/A,Rain,Light Rain,190,2012-12-10 04:55:00